Weather History for Cheboygan, MI

Change the Weather History Date:

Friday, July 5, 2013

  Actual Average (KPLN) Record (KPLN)
Temperature  
Mean Temperature 70 °F -  
Max Temperature 83 °F 79 °F 93 °F (1988)
Min Temperature 56 °F 51 °F 34 °F (1965)
Cooling Degree Days 4    
Growing Degree Days 20 (Base 50)    
Moisture  
Dew Point 60 °F    
Average Humidity 73    
Maximum Humidity 94    
Minimum Humidity 43    
Precipitation  
Precipitation 0.00 in - - ()
Sea Level Pressure  
Sea Level Pressure 30.04 in    
Wind  
Wind Speed 3 mph (South)    
Max Wind Speed 10 mph    
Max Gust Speed -    
Visibility 9 miles    
Events      
Averages and records for this station are not official NWS values.
T = Trace of Precipitation, MM = Missing Value Source: NWS Daily Summary

Daily Weather History Graph

Daily Weather History Graph

Search for Another Location

Airport:

Trip Planner

Search our weather history database for the weather conditions in past years. The results will help you decide how hot, cold, wet, or windy it might be!

Date:

Astronomy

Jul. 05, 2013 Rise Set
Actual Time 5:55 AM EDT 9:29 PM EDT
Civil Twilight 5:17 AM EDT 10:07 PM EDT
Nautical Twilight 4:27 AM EDT 10:57 PM EDT
Astronomical Twilight 3:21 AM EDT 12:02 AM EDT
Moon 3:57 AM EDT (7/5) 7:21 PM EDT (7/5)
Length of Visible Light 16h 49m
Length of Day
15h 34m
Waning Crescent, 6% of the Moon is Illuminated
Jul 5
Waning Crescent
Jul 8
New
Jul 15
First Quarter
Jul 22
Full
Jul 29
Last Quarter

Hourly Weather History & Observations

Time (EDT) Temp. Heat Index Dew Point Humidity Pressure Visibility Wind Dir Wind Speed Gust Speed Precip Events Conditions
12:16 AM 59.5 °F - 57.0 °F 91% 30.05 in 10.0 mi Calm Calm - N/A   Clear
12:35 AM 58.3 °F - 55.9 °F 92% 30.06 in 7.0 mi Calm Calm - N/A   Clear
12:55 AM 57.2 °F - 55.2 °F 93% 30.06 in 7.0 mi Calm Calm - N/A   Clear
1:16 AM 57.6 °F - 55.8 °F 94% 30.06 in 7.0 mi Calm Calm - N/A   Clear
1:35 AM 57.2 °F - 55.4 °F 94% 30.05 in 7.0 mi Calm Calm - N/A   Clear
1:56 AM 57.0 °F - 55.2 °F 94% 30.05 in 5.0 mi Calm Calm - N/A   Clear
2:15 AM 56.8 °F - 55.0 °F 94% 30.05 in 5.0 mi Calm Calm - N/A   Clear
2:35 AM 59.0 °F - 57.2 °F 94% 30.05 in 5.0 mi Calm Calm - N/A   Clear
2:56 AM 62.2 °F - 59.9 °F 92% 30.05 in 7.0 mi South 3.5 mph - N/A   Clear
3:15 AM 62.1 °F - 59.4 °F 91% 30.05 in 7.0 mi South 3.5 mph - N/A   Clear
3:35 AM 62.1 °F - 59.2 °F 90% 30.05 in 7.0 mi South 3.5 mph - N/A   Clear
3:56 AM 62.2 °F - 59.4 °F 90% 30.05 in 7.0 mi South 4.6 mph - N/A   Clear
4:15 AM 61.9 °F - 59.0 °F 90% 30.04 in 10.0 mi South 3.5 mph - N/A   Clear
4:36 AM 62.4 °F - 58.6 °F 87% 30.04 in 10.0 mi South 5.8 mph - N/A   Clear
4:55 AM 62.6 °F - 58.6 °F 87% 30.05 in 10.0 mi South 5.8 mph - N/A   Clear
5:16 AM 61.9 °F - 58.3 °F 88% 30.04 in 10.0 mi SSW 4.6 mph - N/A   Clear
5:36 AM 62.2 °F - 58.1 °F 86% 30.04 in 10.0 mi South 3.5 mph - N/A   Clear
5:55 AM 62.2 °F - 58.1 °F 86% 30.04 in 10.0 mi SSW 5.8 mph - N/A   Clear
6:16 AM 62.6 °F - 58.3 °F 86% 30.04 in 10.0 mi SSW 3.5 mph - N/A   Clear
6:35 AM 63.3 °F - 58.5 °F 84% 30.04 in 10.0 mi South 3.5 mph - N/A   Clear
6:55 AM 61.9 °F - 58.1 °F 87% 30.05 in 7.0 mi Calm Calm - N/A   Clear
7:16 AM 61.7 °F - 59.0 °F 91% 30.05 in 7.0 mi Calm Calm - N/A   Clear
7:35 AM 64.6 °F - 60.1 °F 85% 30.05 in 10.0 mi South 3.5 mph - N/A   Clear
7:55 AM 66.7 °F - 60.6 °F 81% 30.05 in 10.0 mi SSW 3.5 mph - N/A   Clear
8:16 AM 69.4 °F - 61.5 °F 76% 30.05 in 10.0 mi SSW 3.5 mph - N/A   Clear
8:35 AM 70.7 °F - 61.7 °F 73% 30.06 in 10.0 mi SSW 4.6 mph - N/A   Clear
8:56 AM 72.5 °F - 61.9 °F 69% 30.06 in 10.0 mi SSW 4.6 mph - N/A   Clear
9:15 AM 74.3 °F - 61.7 °F 65% 30.07 in 10.0 mi SW 5.8 mph - N/A   Scattered Clouds
9:35 AM 73.9 °F - 62.1 °F 66% 30.06 in 10.0 mi SSW 5.8 mph - N/A   Scattered Clouds
9:56 AM 74.8 °F - 62.4 °F 65% 30.07 in 10.0 mi SW 5.8 mph - N/A   Mostly Cloudy
10:15 AM 75.9 °F - 62.2 °F 62% 30.07 in 10.0 mi SW 3.5 mph - N/A   Scattered Clouds
10:35 AM 77.7 °F - 61.9 °F 58% 30.06 in 10.0 mi SW 6.9 mph - N/A   Clear
10:56 AM 79.7 °F - 61.7 °F 54% 30.06 in 10.0 mi SW 4.6 mph - N/A   Clear
11:15 AM 79.7 °F - 60.3 °F 51% 30.06 in 10.0 mi WSW 5.8 mph - N/A   Clear
11:35 AM 81.0 °F 81.7 °F 60.4 °F 50% 30.06 in 10.0 mi West 8.1 mph - N/A   Clear
11:56 AM 82.6 °F 83.1 °F 61.2 °F 48% 30.06 in 10.0 mi WSW 3.5 mph - N/A   Clear
12:15 PM 82.4 °F 82.5 °F 59.0 °F 45% 30.06 in 10.0 mi WSW 8.1 mph - N/A   Clear
12:36 PM 83.5 °F 83.2 °F 58.6 °F 43% 30.05 in 10.0 mi West 10.4 mph - N/A   Clear
12:55 PM 83.3 °F 83.9 °F 61.7 °F 48% 30.05 in 10.0 mi NNW 4.6 mph - N/A   Scattered Clouds
1:15 PM 81.1 °F 82.5 °F 63.5 °F 55% 30.05 in 10.0 mi North 4.6 mph - N/A   Mostly Cloudy
1:35 PM 82.8 °F 83.3 °F 61.2 °F 48% 30.05 in 10.0 mi Calm Calm - N/A   Overcast
1:55 PM 80.2 °F 81.6 °F 63.1 °F 56% 30.05 in 10.0 mi East 6.9 mph - N/A   Scattered Clouds
2:15 PM 79.5 °F - 64.2 °F 59% 30.05 in 10.0 mi NE 8.1 mph - N/A   Mostly Cloudy
2:35 PM 76.8 °F - 63.1 °F 63% 30.05 in 10.0 mi NNE 6.9 mph - N/A   Mostly Cloudy
2:55 PM 75.7 °F - 62.6 °F 64% 30.05 in 10.0 mi NNE 6.9 mph - N/A   Overcast
3:15 PM 78.3 °F - 63.1 °F 60% 30.04 in 10.0 mi NE 8.1 mph - N/A   Mostly Cloudy
3:36 PM 75.2 °F - 62.4 °F 64% 30.03 in 10.0 mi NE 8.1 mph - N/A   Mostly Cloudy
3:55 PM 78.4 °F - 61.5 °F 56% 30.03 in 10.0 mi ENE 9.2 mph - N/A   Scattered Clouds
4:15 PM 77.9 °F - 61.3 °F 57% 30.02 in 10.0 mi ENE 9.2 mph - N/A   Clear
4:36 PM 78.6 °F - 61.5 °F 56% 30.02 in 10.0 mi ENE 10.4 mph - N/A   Scattered Clouds
4:55 PM 77.2 °F - 62.4 °F 60% 30.01 in 10.0 mi ENE 8.1 mph - N/A   Scattered Clouds
5:15 PM 76.3 °F - 62.8 °F 63% 30.01 in 10.0 mi ENE 6.9 mph - N/A   Scattered Clouds
5:35 PM 75.2 °F - 61.7 °F 63% 30.01 in 10.0 mi NE 6.9 mph - N/A   Scattered Clouds
5:55 PM 75.2 °F - 61.2 °F 62% 30.01 in 10.0 mi ENE 9.2 mph - N/A   Mostly Cloudy
6:16 PM 73.6 °F - 61.0 °F 65% 30.00 in 10.0 mi NE 6.9 mph - N/A   Scattered Clouds
6:35 PM 73.8 °F - 61.5 °F 65% 30.00 in 10.0 mi NE 4.6 mph - N/A   Mostly Cloudy
6:55 PM 75.4 °F - 61.5 °F 62% 30.00 in 10.0 mi NE 4.6 mph - N/A   Scattered Clouds
7:16 PM 75.7 °F - 61.2 °F 60% 29.99 in 10.0 mi NNE 3.5 mph - N/A   Clear
7:35 PM 75.4 °F - 62.1 °F 63% 30.00 in 10.0 mi Calm Calm - N/A   Clear
7:56 PM 75.2 °F - 61.7 °F 63% 30.00 in 10.0 mi Calm Calm - N/A   Clear
8:16 PM 76.3 °F - 62.6 °F 62% 30.01 in 10.0 mi Calm Calm - N/A   Clear
8:35 PM 75.0 °F - 62.8 °F 66% 30.01 in 10.0 mi Calm Calm - N/A   Clear
8:56 PM 72.5 °F - 63.5 °F 73% 30.01 in 10.0 mi Calm Calm - N/A   Clear
9:15 PM 71.8 °F - 63.5 °F 75% 30.02 in 10.0 mi Calm Calm - N/A   Clear
9:36 PM 68.0 °F - 63.3 °F 85% 30.02 in 10.0 mi Calm Calm - N/A   Clear
9:55 PM 66.6 °F - 63.5 °F 90% 30.02 in 10.0 mi Calm Calm - N/A   Clear
10:15 PM 65.5 °F - 62.2 °F 89% 30.02 in 10.0 mi Calm Calm - N/A   Clear
10:36 PM 64.0 °F - 61.5 °F 91% 30.03 in 10.0 mi Calm Calm - N/A   Clear
10:55 PM 64.0 °F - 60.3 °F 87% 30.03 in 10.0 mi Calm Calm - N/A   Clear
11:15 PM 62.4 °F - 59.0 °F 89% 30.02 in 10.0 mi Calm Calm - N/A   Clear
11:36 PM 60.8 °F - 57.7 °F 90% 30.02 in 10.0 mi Calm Calm - N/A   Clear
11:55 PM 61.7 °F - 58.3 °F 89% 30.02 in 10.0 mi South 3.5 mph - N/A   Clear